Location: Étouvelles
(49.5207°N, 3.5808°E)
Time: 00:01:35
(UTC+00:00)

Cosmos 1980 Rocket - Pass Details

Date: 03 February 2023
Orbit: 828 x 850 km, 71.0° (Epoch: 29 March)

Event Time Altitude Azimuth Distance (km) Brightness Sun altitude
Rises 18:44:03 0° 257° (WSW) 3,394 6.9 -19.6°
Reaches altitude 10° 18:47:07 10° 273° (W) 2,467 5.8 -20.1°
Maximum altitude 18:51:19 21° 322° (NW) 1,829 4.3 -20.8°
Drops below altitude 10° 18:55:32 10° 10° (N) 2,484 4.5 -21.5°
Enters shadow 18:57:14 - 20° (NNE) 2,973 4.8 -21.7°
